| time (UTC) | temp F | wind direction | speed MPH | gust MPH | rain 1hr in | rain 24hr in | rain mn in | humidity % | barometer mb |
| 20260903183527 | 82 | 329 | 0.0 | 1.0 | 0.00 | 0.45 | 0.30 | 77 | 1012.9 |
| 20260903182458 | 82 | 99 | 0.0 | 1.0 | 0.00 | 0.45 | 0.30 | 78 | 1013.0 |
| 20260903181446 | 82 | 357 | 0.0 | 0.0 | 0.00 | 0.45 | 0.30 | 79 | 1013.1 |
| 20260903175249 | 81 | 87 | 0.0 | 1.0 | 0.00 | 0.45 | 0.30 | 77 | 1013.1 |
| 20260903174238 | 81 | 323 | 0.0 | 5.0 | 0.00 | 0.45 | 0.30 | 78 | 1013.2 |
| 20260903173242 | 81 | 145 | 0.0 | 5.0 | 0.00 | 0.45 | 0.30 | 79 | 1013.3 |
| 20260903172300 | 80 | 100 | 0.0 | 5.0 | 0.00 | 0.45 | 0.30 | 81 | 1013.4 |
| 20260903171308 | 79 | 323 | 0.0 | 5.0 | 0.00 | 0.45 | 0.30 | 81 | 1013.5 |
| 20260903170324 | 79 | 198 | 0.0 | 5.0 | 0.00 | 0.45 | 0.30 | 80 | 1013.6 |
| 20260903164220 | 79 | 75 | 0.0 | 4.0 | 0.00 | 0.45 | 0.30 | 82 | 1013.6 |
| 20260903163219 | 78 | 192 | 0.0 | 0.0 | 0.00 | 0.45 | 0.30 | 86 | 1013.7 |
| 20260903162156 | 77 | 180 | 0.0 | 1.0 | 0.00 | 0.45 | 0.30 | 88 | 1013.7 |
| 20260903154926 | 74 | 309 | 0.0 | 2.0 | 0.00 | 0.45 | 0.30 | 92 | 1014.1 |
| 20260903153902 | 73 | 0 | 0.0 | 0.0 | 0.00 | 0.45 | 0.30 | 93 | 1014.1 |
| 20260903152842 | 73 | 5 | 0.0 | 3.0 | 0.00 | 0.45 | 0.30 | 94 | 1014.3 |
| 20260903151808 | 72 | 283 | 0.0 | 2.0 | 0.00 | 0.45 | 0.30 | 97 | 1014.4 |
| 20260903150745 | 71 | 120 | 0.0 | 0.0 | 0.00 | 0.45 | 0.30 | 97 | 1014.6 |
| 20260903145715 | 71 | 327 | 0.0 | 0.0 | 0.00 | 0.45 | 0.30 | 98 | 1014.4 |
| 20260903144656 | 70 | 34 | 0.0 | 0.0 | 0.00 | 0.45 | 0.30 | 98 | 1014.6 |
| 20260903143645 | 70 | 65 | 0.0 | 0.0 | 0.00 | 0.45 | 0.30 | 98 | 1014.7 |
| 20260903142618 | 70 | 77 | 0.0 | 0.0 | 0.00 | 0.45 | 0.30 | 99 | 1014.6 |
| 20260903141640 | 70 | 113 | 0.0 | 0.0 | 0.00 | 0.45 | 0.30 | 99 | 1014.5 |
| 20260903140644 | 69 | 311 | 0.0 | 0.0 | 0.00 | 0.45 | 0.30 | 99 | 1014.5 |
| 20260903135636 | 70 | 316 | 0.0 | 0.0 | 0.00 | 0.45 | 0.30 | 99 | 1014.5 |
| 20260903133431 | 69 | 328 | 0.0 | 0.0 | 0.00 | 0.46 | 0.30 | 99 | 1014.7 |
| 20260903132448 | 69 | 328 | 0.0 | 0.0 | 0.00 | 0.46 | 0.30 | 99 | 1014.6 |
| 20260903131453 | 69 | 328 | 0.0 | 0.0 | 0.00 | 0.46 | 0.30 | 99 | 1014.7 |
| 20260903130518 | 68 | 328 | 0.0 | 0.0 | 0.00 | 0.46 | 0.30 | 99 | 1014.8 |
| 20260903125502 | 68 | 328 | 0.0 | 0.0 | 0.00 | 0.46 | 0.30 | 99 | 1015.2 |
| 20260903124459 | 68 | 328 | 0.0 | 0.0 | 0.00 | 0.46 | 0.30 | 99 | 1015.2 |
| 20260903123436 | 68 | 328 | 0.0 | 0.0 | 0.00 | 0.46 | 0.30 | 99 | 1014.9 |
| 20260903122457 | 68 | 328 | 0.0 | 0.0 | 0.00 | 0.46 | 0.30 | 99 | 1015.1 |
| 20260903121424 | 67 | 328 | 0.0 | 0.0 | 0.00 | 0.46 | 0.30 | 99 | 1015.2 |
| 20260903120356 | 67 | 328 | 0.0 | 0.0 | 0.00 | 0.46 | 0.30 | 99 | 1015.5 |
| 20260903115341 | 67 | 328 | 0.0 | 0.0 | 0.00 | 0.46 | 0.30 | 99 | 1015.4 |
| 20260903114334 | 67 | 328 | 0.0 | 0.0 | 0.00 | 0.46 | 0.30 | 99 | 1015.5 |
| 20260903113325 | 67 | 328 | 0.0 | 0.0 | 0.00 | 0.46 | 0.30 | 99 | 1015.4 |
| 20260903112328 | 67 | 328 | 0.0 | 0.0 | 0.00 | 0.46 | 0.30 | 99 | 1015.6 |
| 20260903111312 | 67 | 327 | 0.0 | 0.0 | 0.00 | 0.46 | 0.30 | 99 | 1015.6 |
| 20260903110311 | 67 | 79 | 0.0 | 0.0 | 0.00 | 0.46 | 0.30 | 99 | 1015.5 |
| 20260903105314 | 67 | 77 | 0.0 | 0.0 | 0.00 | 0.46 | 0.30 | 99 | 1015.6 |
| 20260903104255 | 67 | 58 | 0.0 | 0.0 | 0.00 | 0.46 | 0.30 | 99 | 1015.6 |
| 20260903102122 | 67 | 13 | 0.0 | 0.0 | 0.00 | 0.46 | 0.30 | 99 | 1015.3 |
| 20260903101106 | 67 | 100 | 0.0 | 1.0 | 0.00 | 0.46 | 0.30 | 99 | 1015.1 |
| 20260903100111 | 67 | 32 | 0.0 | 0.0 | 0.00 | 0.46 | 0.30 | 99 | 1014.9 |
| 20260903095109 | 67 | 89 | 0.0 | 0.0 | 0.00 | 0.46 | 0.30 | 99 | 1015.1 |
| 20260903092947 | 67 | 341 | 0.0 | 0.0 | 0.00 | 0.46 | 0.30 | 98 | 1014.9 |
| 20260903091959 | 67 | 68 | 0.0 | 0.0 | 0.00 | 0.46 | 0.30 | 98 | 1015.1 |
| 20260903091015 | 67 | 56 | 0.0 | 0.0 | 0.00 | 0.46 | 0.30 | 98 | 1015.3 |
| 20260903085949 | 67 | 56 | 0.0 | 0.0 | 0.00 | 0.46 | 0.30 | 98 | 1014.9 |
| 20260903085001 | 67 | 56 | 0.0 | 0.0 | 0.00 | 0.46 | 0.30 | 98 | 1014.9 |
| 20260903084010 | 67 | 342 | 0.0 | 0.0 | 0.00 | 0.46 | 0.30 | 98 | 1015.1 |
| 20260903083005 | 67 | 342 | 0.0 | 0.0 | 0.00 | 0.46 | 0.30 | 98 | 1015.4 |
| 20260903081952 | 66 | 342 | 0.0 | 0.0 | 0.00 | 0.46 | 0.30 | 98 | 1015.4 |
| 20260903080954 | 66 | 185 | 0.0 | 0.0 | 0.00 | 0.46 | 0.30 | 98 | 1015.5 |
| 20260903074847 | 66 | 197 | 0.0 | 0.0 | 0.00 | 0.46 | 0.30 | 98 | 1015.5 |
| 20260903073848 | 66 | 217 | 0.0 | 0.0 | 0.00 | 0.46 | 0.30 | 98 | 1015.9 |
| 20260903072817 | 66 | 217 | 0.0 | 0.0 | 0.00 | 0.45 | 0.28 | 98 | 1016.0 |
| 20260903070711 | 66 | 217 | 0.0 | 0.0 | 0.00 | 0.45 | 0.28 | 98 | 1016.1 |
| 20260903065656 | 66 | 217 | 0.0 | 0.0 | 0.00 | 0.45 | 0.28 | 98 | 1016.2 |
| 20260903064622 | 65 | 217 | 0.0 | 0.0 | 0.00 | 0.45 | 0.28 | 98 | 1015.9 |
| 20260903063626 | 65 | 269 | 0.0 | 0.0 | 0.00 | 0.45 | 0.28 | 98 | 1015.9 |
| 20260903062644 | 66 | 269 | 0.0 | 0.0 | 0.00 | 0.45 | 0.28 | 98 | 1016.0 |
| 20260903061627 | 66 | 125 | 0.0 | 0.0 | 0.00 | 0.45 | 0.28 | 98 | 1015.7 |
| 20260903060620 | 65 | 172 | 0.0 | 0.0 | 0.06 | 0.45 | 0.28 | 98 | 1016.5 |
| 20260903055550 | 65 | 187 | 0.0 | 0.0 | 0.08 | 0.44 | 0.27 | 98 | 1017.2 |
| 20260903054558 | 65 | 187 | 0.0 | 0.0 | 0.10 | 0.42 | 0.27 | 97 | 1016.6 |
| 20260903053528 | 66 | 207 | 0.0 | 0.0 | 0.20 | 0.41 | 0.25 | 97 | 1017.3 |
| 20260903051334 | 66 | 208 | 0.0 | 0.0 | 0.73 | 0.32 | 0.17 | 97 | 1018.5 |
| 20260903050305 | 66 | 150 | 0.0 | 1.0 | 1.42 | 0.23 | 0.06 | 97 | 1019.0 |
| 20260903045242 | 66 | 16 | 0.0 | 0.0 | 0.00 | 0.16 | 0.00 | 97 | 1018.8 |
| 20260903043140 | 65 | 67 | 0.0 | 0.0 | 0.00 | 0.16 | 0.00 | 97 | 1018.3 |
| 20260903042120 | 65 | 66 | 0.0 | 0.0 | 0.00 | 0.16 | 0.00 | 97 | 1018.3 |
| 20260903041130 | 65 | 66 | 0.0 | 0.0 | 0.00 | 0.16 | 0.00 | 97 | 1018.4 |
| 20260903040154 | 65 | 67 | 0.0 | 0.0 | 0.00 | 0.16 | 0.00 | 97 | 1018.6 |
| 20260903035201 | 65 | 67 | 0.0 | 0.0 | 0.00 | 0.16 | 0.16 | 97 | 1018.6 |
| 20260903034132 | 65 | 66 | 0.0 | 0.0 | 0.00 | 0.16 | 0.16 | 97 | 1018.5 |
| 20260903033152 | 65 | 66 | 0.0 | 0.0 | 0.00 | 0.16 | 0.16 | 97 | 1018.5 |
| 20260903025908 | 65 | 67 | 0.0 | 0.0 | 0.00 | 0.16 | 0.16 | 96 | 1018.7 |
| 20260903023751 | 65 | 67 | 0.0 | 0.0 | 0.00 | 0.16 | 0.16 | 96 | 1019.1 |
| 20260903022751 | 65 | 66 | 0.0 | 0.0 | 0.00 | 0.16 | 0.16 | 96 | 1019.3 |
| 20260903021717 | 65 | 67 | 0.0 | 0.0 | 0.00 | 0.16 | 0.16 | 96 | 1019.2 |
| 20260903020716 | 65 | 67 | 0.0 | 0.0 | 0.00 | 0.16 | 0.16 | 96 | 1019.2 |
| 20260903015656 | 65 | 66 | 0.0 | 0.0 | 0.00 | 0.16 | 0.16 | 96 | 1019.5 |
| 20260903013536 | 64 | 66 | 0.0 | 0.0 | 0.00 | 0.16 | 0.16 | 96 | 1019.4 |
| 20260903012536 | 65 | 66 | 0.0 | 0.0 | 0.00 | 0.16 | 0.16 | 96 | 1019.4 |
| 20260903011536 | 65 | 67 | 0.0 | 0.0 | 0.00 | 0.16 | 0.16 | 96 | 1019.7 |
| 20260903010531 | 65 | 66 | 0.0 | 0.0 | 0.00 | 0.16 | 0.16 | 96 | 1019.6 |
| 20260903005504 | 65 | 66 | 0.0 | 0.0 | 0.00 | 0.16 | 0.16 | 96 | 1019.5 |
| 20260903004447 | 65 | 67 | 0.0 | 0.0 | 0.00 | 0.18 | 0.16 | 95 | 1019.7 |
| 20260903003430 | 65 | 67 | 0.0 | 0.0 | 0.00 | 0.20 | 0.16 | 95 | 1019.7 |
| 20260903002434 | 65 | 66 | 0.0 | 0.0 | 0.00 | 0.20 | 0.16 | 95 | 1019.7 |
| 20260903000303 | 65 | 67 | 0.0 | 0.0 | 0.00 | 0.20 | 0.16 | 95 | 1019.2 |
| 20260902235259 | 65 | 67 | 0.0 | 0.0 | 0.00 | 0.20 | 0.16 | 95 | 1019.0 |
| 20260902234314 | 65 | 152 | 0.0 | 0.0 | 0.00 | 0.20 | 0.16 | 95 | 1019.0 |
| 20260902233328 | 65 | 152 | 0.0 | 0.0 | 0.00 | 0.20 | 0.16 | 95 | 1019.1 |
| 20260902232259 | 65 | 152 | 0.0 | 0.0 | 0.00 | 0.20 | 0.16 | 94 | 1019.2 |
| 20260902231314 | 65 | 152 | 0.0 | 0.0 | 0.00 | 0.20 | 0.16 | 94 | 1019.4 |
| 20260902230306 | 65 | 153 | 0.0 | 0.0 | 0.00 | 0.20 | 0.16 | 94 | 1019.6 |
| 20260902221605 | 66 | 153 | 0.0 | 0.0 | 0.00 | 0.22 | 0.16 | 93 | 1020.5 |
| 20260902220620 | 66 | 153 | 0.0 | 0.0 | 0.00 | 0.22 | 0.16 | 93 | 1020.4 |
| 20260902215559 | 66 | 217 | 0.0 | 0.0 | 0.00 | 0.22 | 0.16 | 93 | 1020.3 |
| 20260902214546 | 67 | 135 | 0.0 | 0.0 | 0.00 | 0.22 | 0.16 | 93 | 1020.3 |
| 20260902213529 | 66 | 122 | 0.0 | 0.0 | 0.00 | 0.22 | 0.16 | 94 | 1019.9 |
| 20260902212505 | 66 | 122 | 0.0 | 0.0 | 0.00 | 0.22 | 0.16 | 93 | 1020.0 |
| 20260902211434 | 66 | 122 | 0.0 | 0.0 | 0.00 | 0.22 | 0.16 | 94 | 1020.0 |
| 20260902210442 | 66 | 120 | 0.0 | 0.0 | 0.00 | 0.22 | 0.16 | 93 | 1020.0 |
| 20260902205412 | 66 | 120 | 0.0 | 0.0 | 0.00 | 0.22 | 0.16 | 93 | 1019.8 |
| 20260902204412 | 67 | 120 | 0.0 | 0.0 | 0.00 | 0.22 | 0.16 | 93 | 1019.8 |
| 20260902203431 | 67 | 150 | 0.0 | 0.0 | 0.00 | 0.22 | 0.16 | 94 | 1019.8 |
| 20260902202436 | 67 | 148 | 0.0 | 0.0 | 0.00 | 0.22 | 0.16 | 95 | 1019.9 |
| 20260902201415 | 66 | 148 | 0.0 | 0.0 | 0.00 | 0.22 | 0.16 | 95 | 1019.9 |
| 20260902200352 | 66 | 223 | 0.0 | 0.0 | 0.00 | 0.22 | 0.16 | 96 | 1020.0 |
| 20260902195348 | 65 | 39 | 0.0 | 0.0 | 0.00 | 0.22 | 0.16 | 96 | 1020.0 |
| 20260902194358 | 65 | 61 | 0.0 | 0.0 | 0.00 | 0.22 | 0.16 | 96 | 1019.9 |
| 20260902192242 | 64 | 61 | 0.0 | 0.0 | 0.06 | 0.22 | 0.16 | 95 | 1020.1 |
| 20260902191222 | 63 | 61 | 0.0 | 0.0 | 0.19 | 0.21 | 0.15 | 94 | 1020.3 |
| 20260902190204 | 64 | 60 | 0.0 | 0.0 | 0.32 | 0.17 | 0.10 | 93 | 1020.4 |
| 20260902185131 | 65 | 118 | 0.0 | 0.0 | 0.19 | 0.12 | 0.06 | 89 | 1021.0 |